User: anonymous   Login
Location: Godiavel Galaoual
(15.2485°N, 12.6604°W)
Time: 02:36:52
(UTC+00:00)
Language:

BUGSAT 1 - Orbit

View from above orbital plane
View from above orbital plane
View from above satellite
View from above satellite

Ground track
Ground track

The orbit data is extracted from the following two-line orbital elements,

1 40014U 14033E   21206.55372855  .00000319  00000-0  34091-4 0  9995
2 40014  98.1135 187.4339 0032620  40.2473 320.1155 14.95780540387262
Epoch (UTC): 25 July 2021 13:17:22
Eccentricity: 0.0032620
inclination: 98.1135°
perigee height: 557 km
apogee height: 602 km
right ascension of ascending node: 187.4339°
argument of perigee: 40.2473°
revolutions per day: 14.95780540
mean anomaly at epoch: 320.1155°
orbit number at epoch: 38726

The dashed part of the orbit path shows where the satellite is in the earth's shadow,  

DLR